GLOBALSTAR M044 [-]

Last updated on July 6, 2021, 3:36 p.m. UTC

1 25678U 99019C   21186.93291076 -.00000034  00000-0  68913-3 0  9999
2 25678  51.9955 255.5935 0006820 141.0611  30.3207 11.90202107999564
UTC
Height (km)
Latitude
Longitude
Inclination
Orbital Period
UTC large
Height (km)
Speed (km/s)
/
Latitude / Longitude
Inclination (degrees)
Orbital Period (minutes)
Azimuth
Elevation
Range (km)
Doppler Factor
iOS Compass Heading
iOS Angle